Tracking 29030 objects as of 25-Jun-2024
HD Live streaming from Space Station
objects crossing your sky now

CZ-3B DEB

Track CZ-3B DEB now!


NORAD ID: 40814
Int'l Code: 2010-042X
Perigee: 920.4 km
Apogee: 41,337.1 km
Inclination: 27.4 °
Period: 756.4 minutes
Semi major axis: 27499 km
RCS: Unknown
Launch date: September 4, 2010
Source: People's Republic of China (PRC)
Launch site: Xichang Space Center, China (XSC)

Note: This is SATELLITE DEBRIS
Your satellite tracking list
Your tracking list is empty




NASA's NSSDC Master Catalog

Two Line Element Set (TLE):
1 40814U 10042X   24175.47295880  .00000242  00000-0  22431-1 0  9997
2 40814  27.3601 346.3136 7348573 206.5220  80.9032  1.90375087 66989
Source of the keplerian elements: AFSPC